STARLINK-11587, 63310

Orbit data source: Space-Track

STARLINK-11587, 63310 is a payload satellite owned by SpaceX/Seattle (US) in LEO that was launched on Tue, 18 Mar 2025 UTC via an FALCON 9 launch vehicle from the Air Force Eastern Test Range (AFETR). Payload-class satellites include a variety of spacecraft equipped with specific instruments for various scientific and technological missions. These include communications satellites like Starlink; space stations such as the ISS; scientific satellites like the Hubble; Earth observation satellites from companies like Planet Labs, Umbra, and HawkEye 360; GPS; miniature CubeSats for education and research; and military/defense satellites.

Loading next visibility...
Identifier
63310, 2025-057D
Orbit
LEO
Country
Flag of USUS
Related business
Manufacturer
SpaceX/Seattle
Mission
Operational Commercial Communications
Bus & Motor
STARLINK V2MD, Unknown motor
Mass
960 kg wet, ~910 kg dry
Launch date (UTC)
2025-03-18 (9 months ago)
Launch vehicle
FALCON 9
Launch site
Air Force Eastern Test Range (AFETR)
Object type
Payload
Rocket body
Debris
Shape & HBR
Box + 2 Pan, 18.1 m
Radar Cross Section
36.964 m², Large (>1 m²)

Expand to show TLE details & history
Last TLE update: 1 day ago

TLE from 1 day ago
0 STARLINK-11587
1 63310U 25057D   25348.48752256  .00240793  00000-0  18201-2 0  9992
2 63310  43.0003  58.4490 0001262 269.5044  90.5679 15.70919217 43775
Epoch: 2025-12-14T11:42Z
TLE epoch observation values (Epoch: 2025-12-14T11:42:01.949Z)
Latitude
-0.00001°
Longitude
159.54114°
Altitude
356.048 km
Speed
7.697 km/s
True Right ascension
03h 53m 47s
True Declination
0° 00' 00"
Sunlit
Object was in full shadow at epoch
Visualization orbit readout
Latitude
Unknown
Longitude
Unknown
Altitude
Unknown
Speed
Unknown
Apparent Right ascension
Unknown
Apparent Declination
Unknown
Sunlit
N/A
Visualization observer readout
Local Sidereal Time
13:22:48
Azimuth
Unknown
Elevation
Unknown
Doppler factor
Unknown
Orbital elements
Apogee altitude
359.1 km
Perigee altitude
357.4 km
Semi-major axis
6,736.387 km
Eccentricity
0.00013
Inclination
43.0003°
RAAN
58.449°
Arg. of periapsis
269.5044°
True anomaly
90.58236°
Mean anomaly
90.5679°
Eccentric anomaly
90.57513°
Mean motion
3.92557 °/min
Orbital period
91.71 mins
BSTAR
0.0018201
Loading maneuver chart data...
Computing Atmospheric mass density...
Loading historical data...
Loading historical data...
Loading historical data...
Loading historical data...
Loading historical data...
Loading historical data...
Loading historical data...

Documentation

Showing up to 5 results
|